| time (UTC) | temp F | wind direction | speed MPH | gust MPH | rain 1hr in | rain 24hr in | rain mn in | humidity % | barometer mb |
| 20260506071236 | 56 | 250 | 2.0 | 8.0 | 0.00 | 0.00 | 0.00 | 78 | 1013.1 |
| 20260506070235 | 57 | 181 | 2.0 | 6.0 | 0.00 | 0.00 | 0.00 | 79 | 1013.1 |
| 20260506062230 | 57 | 193 | 1.0 | 5.0 | 0.00 | 0.00 | 0.00 | 79 | 1013.0 |
| 20260506061729 | 57 | 134 | 1.0 | 4.0 | 0.00 | 0.00 | 0.00 | 80 | 1013.1 |
| 20260506060228 | 57 | 153 | 2.0 | 5.0 | 0.00 | 0.00 | 0.00 | 80 | 1013.2 |
| 20260506051219 | 58 | 221 | 1.0 | 5.0 | 0.00 | 0.00 | 0.00 | 80 | 1013.6 |
| 20260506050722 | 57 | 155 | 2.0 | 5.0 | 0.00 | 0.00 | 0.00 | 80 | 1013.7 |
| 20260506044221 | 57 | 260 | 2.0 | 6.0 | 0.00 | 0.00 | 0.00 | 80 | 1013.6 |
| 20260506043219 | 57 | 221 | 2.0 | 5.0 | 0.00 | 0.00 | 0.00 | 80 | 1013.7 |
| 20260506042220 | 57 | 235 | 1.0 | 4.0 | 0.00 | 0.00 | 0.00 | 80 | 1013.6 |
| 20260506041218 | 57 | 212 | 2.0 | 6.0 | 0.00 | 0.00 | 0.00 | 80 | 1013.6 |
| 20260506040219 | 57 | 158 | 2.0 | 6.0 | 0.00 | 0.00 | 0.00 | 80 | 1013.6 |
| 20260506035218 | 57 | 141 | 1.0 | 5.0 | 0.00 | 0.00 | 0.00 | 81 | 1013.5 |
| 20260506034221 | 57 | 241 | 2.0 | 8.0 | 0.00 | 0.00 | 0.00 | 81 | 1013.6 |
| 20260506033719 | 57 | 215 | 1.0 | 6.0 | 0.00 | 0.00 | 0.00 | 81 | 1013.6 |
| 20260506032212 | 57 | 191 | 2.0 | 6.0 | 0.00 | 0.00 | 0.00 | 81 | 1013.4 |
| 20260506031214 | 57 | 235 | 2.0 | 8.0 | 0.00 | 0.00 | 0.00 | 81 | 1013.3 |
| 20260506030214 | 56 | 215 | 1.0 | 4.0 | 0.00 | 0.00 | 0.00 | 81 | 1013.3 |
| 20260506025214 | 56 | 250 | 2.0 | 5.0 | 0.00 | 0.00 | 0.00 | 81 | 1013.3 |
| 20260506024212 | 56 | 176 | 2.0 | 9.0 | 0.00 | 0.00 | 0.00 | 81 | 1013.3 |
| 20260506023209 | 56 | 163 | 1.0 | 8.0 | 0.00 | 0.00 | 0.00 | 81 | 1013.3 |
| 20260506022206 | 56 | 191 | 1.0 | 4.0 | 0.00 | 0.00 | 0.00 | 81 | 1013.4 |
| 20260506021206 | 57 | 203 | 1.0 | 5.0 | 0.00 | 0.00 | 0.00 | 80 | 1013.4 |
| 20260506020706 | 57 | 210 | 1.0 | 5.0 | 0.00 | 0.00 | 0.00 | 80 | 1013.5 |
| 20260506015202 | 57 | 208 | 1.0 | 4.0 | 0.00 | 0.00 | 0.00 | 79 | 1013.5 |
| 20260506014703 | 57 | 203 | 2.0 | 7.0 | 0.00 | 0.00 | 0.00 | 78 | 1013.4 |
| 20260506013203 | 57 | 203 | 2.0 | 7.0 | 0.00 | 0.00 | 0.00 | 78 | 1013.2 |
| 20260506012203 | 57 | 191 | 2.0 | 7.0 | 0.00 | 0.00 | 0.00 | 78 | 1013.2 |
| 20260506011202 | 57 | 229 | 2.0 | 6.0 | 0.00 | 0.00 | 0.00 | 78 | 1013.3 |
| 20260506010159 | 57 | 197 | 2.0 | 5.0 | 0.00 | 0.00 | 0.00 | 78 | 1013.2 |
| 20260506005158 | 57 | 197 | 2.0 | 5.0 | 0.00 | 0.00 | 0.00 | 78 | 1013.2 |
| 20260506004701 | 57 | 218 | 1.0 | 5.0 | 0.00 | 0.00 | 0.00 | 78 | 1013.0 |
| 20260506004316 | 57 | 155 | 2.0 | 5.0 | 0.00 | 0.00 | 0.00 | 78 | 1012.8 |
| 20260506002158 | 58 | 198 | 2.0 | 7.0 | 0.00 | 0.00 | 0.00 | 78 | 1012.2 |
| 20260506001200 | 58 | 197 | 2.0 | 8.0 | 0.00 | 0.00 | 0.00 | 78 | 1011.8 |
| 20260506000159 | 58 | 206 | 3.0 | 6.0 | 0.00 | 0.00 | 0.00 | 78 | 1011.7 |
| 20260505235200 | 58 | 194 | 3.0 | 8.0 | 0.00 | 0.00 | 0.00 | 78 | 1011.6 |
| 20260505234159 | 58 | 240 | 3.0 | 7.0 | 0.00 | 0.00 | 0.00 | 79 | 1011.5 |
| 20260505233158 | 58 | 257 | 2.0 | 8.0 | 0.00 | 0.00 | 0.00 | 79 | 1011.5 |
| 20260505232159 | 58 | 217 | 2.0 | 8.0 | 0.00 | 0.00 | 0.00 | 79 | 1011.4 |
| 20260505231159 | 58 | 229 | 2.0 | 7.0 | 0.00 | 0.00 | 0.00 | 78 | 1011.6 |
| 20260505230201 | 59 | 219 | 2.0 | 7.0 | 0.00 | 0.00 | 0.00 | 78 | 1011.4 |
| 20260505225159 | 59 | 181 | 2.0 | 7.0 | 0.00 | 0.00 | 0.00 | 77 | 1011.2 |
| 20260505224201 | 60 | 204 | 2.0 | 7.0 | 0.00 | 0.00 | 0.00 | 76 | 1011.2 |
| 20260505223159 | 60 | 197 | 3.0 | 9.0 | 0.00 | 0.00 | 0.00 | 75 | 1011.1 |
| 20260505222159 | 61 | 181 | 2.0 | 7.0 | 0.00 | 0.00 | 0.00 | 73 | 1011.0 |
| 20260505221702 | 62 | 203 | 3.0 | 7.0 | 0.00 | 0.00 | 0.00 | 72 | 1010.8 |
| 20260505220158 | 62 | 277 | 3.0 | 7.0 | 0.00 | 0.00 | 0.00 | 72 | 1011.0 |
| 20260505215201 | 62 | 187 | 3.0 | 7.0 | 0.00 | 0.00 | 0.00 | 72 | 1010.9 |
| 20260505214159 | 62 | 225 | 3.0 | 8.0 | 0.00 | 0.00 | 0.00 | 73 | 1010.8 |
| 20260505213158 | 62 | 208 | 3.0 | 10.0 | 0.00 | 0.00 | 0.00 | 72 | 1010.8 |
| 20260505212159 | 63 | 215 | 2.0 | 5.0 | 0.00 | 0.00 | 0.00 | 73 | 1010.6 |
| 20260505211158 | 62 | 200 | 4.0 | 8.0 | 0.00 | 0.00 | 0.00 | 72 | 1010.5 |
| 20260505205159 | 64 | 264 | 3.0 | 11.0 | 0.00 | 0.00 | 0.00 | 70 | 1010.5 |
| 20260505204159 | 64 | 245 | 3.0 | 11.0 | 0.00 | 0.00 | 0.00 | 69 | 1010.5 |
| 20260505203158 | 65 | 225 | 3.0 | 10.0 | 0.00 | 0.00 | 0.00 | 68 | 1010.4 |
| 20260505202159 | 65 | 127 | 3.0 | 8.0 | 0.00 | 0.00 | 0.00 | 69 | 1010.3 |
| 20260505201200 | 65 | 184 | 3.0 | 9.0 | 0.00 | 0.00 | 0.00 | 70 | 1010.5 |
| 20260505200700 | 65 | 160 | 3.0 | 8.0 | 0.00 | 0.00 | 0.00 | 70 | 1010.6 |
| 20260505195700 | 65 | 217 | 3.0 | 10.0 | 0.00 | 0.00 | 0.00 | 69 | 1010.8 |
| 20260505194159 | 65 | 167 | 3.0 | 9.0 | 0.00 | 0.00 | 0.00 | 70 | 1010.8 |
| 20260505193200 | 65 | 117 | 3.0 | 7.0 | 0.00 | 0.00 | 0.00 | 70 | 1010.8 |
| 20260505192200 | 66 | 246 | 2.0 | 6.0 | 0.00 | 0.00 | 0.00 | 69 | 1010.8 |
| 20260505191200 | 66 | 198 | 3.0 | 8.0 | 0.00 | 0.00 | 0.00 | 69 | 1010.9 |
| 20260505190159 | 66 | 170 | 3.0 | 7.0 | 0.00 | 0.00 | 0.00 | 68 | 1011.0 |
| 20260505185158 | 65 | 228 | 3.0 | 6.0 | 0.00 | 0.00 | 0.00 | 68 | 1010.9 |
| 20260505184201 | 66 | 150 | 2.0 | 6.0 | 0.00 | 0.00 | 0.00 | 69 | 1011.0 |
| 20260505183200 | 66 | 201 | 3.0 | 8.0 | 0.00 | 0.00 | 0.00 | 67 | 1011.0 |
| 20260505182202 | 68 | 139 | 2.0 | 6.0 | 0.00 | 0.00 | 0.00 | 65 | 1011.1 |
| 20260505181159 | 67 | 136 | 2.0 | 6.0 | 0.00 | 0.00 | 0.00 | 66 | 1011.2 |
| 20260505180213 | 68 | 193 | 2.0 | 7.0 | 0.00 | 0.00 | 0.00 | 67 | 1011.4 |
| 20260505175159 | 67 | 203 | 2.0 | 7.0 | 0.00 | 0.00 | 0.00 | 67 | 1011.5 |
| 20260505174200 | 68 | 155 | 2.0 | 5.0 | 0.00 | 0.00 | 0.00 | 67 | 1011.5 |
| 20260505173159 | 67 | 209 | 2.0 | 7.0 | 0.00 | 0.00 | 0.00 | 67 | 1011.6 |
| 20260505172158 | 68 | 187 | 2.0 | 7.0 | 0.00 | 0.00 | 0.00 | 66 | 1011.6 |
| 20260505171159 | 69 | 139 | 2.0 | 5.0 | 0.00 | 0.00 | 0.00 | 64 | 1011.5 |
| 20260505170701 | 69 | 210 | 2.0 | 5.0 | 0.00 | 0.00 | 0.00 | 65 | 1011.8 |
| 20260505165201 | 69 | 134 | 2.0 | 5.0 | 0.00 | 0.00 | 0.00 | 65 | 1011.9 |
| 20260505164701 | 68 | 198 | 2.0 | 4.0 | 0.00 | 0.00 | 0.00 | 66 | 1012.0 |
| 20260505163700 | 67 | 159 | 2.0 | 5.0 | 0.00 | 0.00 | 0.00 | 68 | 1012.0 |
| 20260505162159 | 66 | 165 | 2.0 | 5.0 | 0.00 | 0.00 | 0.00 | 68 | 1012.1 |
| 20260505161200 | 65 | 203 | 3.0 | 11.0 | 0.00 | 0.00 | 0.00 | 69 | 1012.2 |
| 20260505160159 | 66 | 179 | 3.0 | 7.0 | 0.00 | 0.00 | 0.00 | 69 | 1012.3 |
| 20260505152205 | 66 | 131 | 2.0 | 7.0 | 0.00 | 0.00 | 0.00 | 68 | 1012.3 |
| 20260505151158 | 67 | 207 | 2.0 | 7.0 | 0.00 | 0.00 | 0.00 | 68 | 1012.1 |
| 20260505150200 | 67 | 152 | 2.0 | 7.0 | 0.00 | 0.00 | 0.00 | 67 | 1012.2 |
| 20260505140200 | 67 | 162 | 1.0 | 3.0 | 0.00 | 0.00 | 0.00 | 69 | 1012.1 |
| 20260505130159 | 62 | 162 | 1.0 | 5.0 | 0.00 | 0.00 | 0.00 | 75 | 1012.3 |
| 20260505124159 | 61 | 249 | 1.0 | 4.0 | 0.00 | 0.00 | 0.00 | 77 | 1012.4 |
| 20260505123202 | 60 | 229 | 1.0 | 4.0 | 0.00 | 0.00 | 0.00 | 78 | 1012.2 |
| 20260505122158 | 60 | 232 | 1.0 | 4.0 | 0.00 | 0.00 | 0.00 | 79 | 1012.2 |
| 20260505121201 | 59 | 216 | 1.0 | 5.0 | 0.00 | 0.00 | 0.00 | 80 | 1012.3 |
| 20260505120158 | 58 | 179 | 1.0 | 4.0 | 0.00 | 0.00 | 0.00 | 80 | 1012.3 |
| 20260505115200 | 58 | 135 | 1.0 | 3.0 | 0.00 | 0.00 | 0.00 | 81 | 1012.3 |
| 20260505114206 | 56 | 219 | 1.0 | 3.0 | 0.00 | 0.00 | 0.00 | 80 | 1012.3 |
| 20260505114200 | 57 | 215 | 1.0 | 5.0 | 0.00 | 0.00 | 0.00 | 81 | 1012.3 |
| 20260505112159 | 55 | 150 | 0.0 | 4.0 | 0.00 | 0.00 | 0.00 | 79 | 1012.5 |
| 20260505111158 | 54 | 215 | 0.0 | 4.0 | 0.00 | 0.00 | 0.00 | 79 | 1012.5 |
| 20260505110218 | 53 | 179 | 0.0 | 4.0 | 0.00 | 0.00 | 0.00 | 77 | 1012.2 |
| 20260505110211 | 53 | 204 | 1.0 | 2.0 | 0.00 | 0.00 | 0.00 | 78 | 1012.2 |
| 20260505102159 | 51 | 198 | 0.0 | 2.0 | 0.00 | 0.00 | 0.00 | 72 | 1012.2 |
| 20260505101158 | 50 | 195 | 0.0 | 2.0 | 0.00 | 0.00 | 0.00 | 72 | 1012.1 |
| 20260505100159 | 50 | 218 | 0.0 | 1.0 | 0.00 | 0.00 | 0.00 | 72 | 1012.1 |
| 20260505095201 | 50 | 174 | 0.0 | 1.0 | 0.00 | 0.00 | 0.00 | 72 | 1012.2 |
| 20260505094200 | 50 | 175 | 0.0 | 1.0 | 0.00 | 0.00 | 0.00 | 72 | 1012.0 |
| 20260505093159 | 49 | 174 | 0.0 | 0.0 | 0.00 | 0.00 | 0.00 | 72 | 1012.1 |
| 20260505092200 | 49 | 175 | 0.0 | 1.0 | 0.00 | 0.00 | 0.00 | 72 | 1012.2 |
| 20260505091158 | 49 | 174 | 0.0 | 1.0 | 0.00 | 0.00 | 0.00 | 72 | 1012.2 |
| 20260505090703 | 50 | 174 | 0.0 | 1.0 | 0.00 | 0.00 | 0.00 | 71 | 1012.1 |
| 20260505085158 | 50 | 175 | 0.0 | 1.0 | 0.00 | 0.00 | 0.00 | 71 | 1012.1 |
| 20260505084159 | 49 | 174 | 0.0 | 1.0 | 0.00 | 0.00 | 0.00 | 70 | 1012.1 |
| 20260505083656 | 49 | 197 | 0.0 | 3.0 | 0.00 | 0.00 | 0.00 | 70 | 1012.2 |
| 20260505082152 | 49 | 203 | 0.0 | 1.0 | 0.00 | 0.00 | 0.00 | 70 | 1012.1 |
| 20260505081153 | 49 | 203 | 0.0 | 0.0 | 0.00 | 0.00 | 0.00 | 71 | 1012.2 |
| 20260505080153 | 48 | 203 | 0.0 | 0.0 | 0.00 | 0.00 | 0.00 | 71 | 1012.2 |
| 20260505075655 | 48 | 203 | 0.0 | 1.0 | 0.00 | 0.00 | 0.00 | 72 | 1012.2 |
| 20260505074153 | 48 | 203 | 0.0 | 0.0 | 0.00 | 0.00 | 0.00 | 73 | 1012.3 |
| 20260505073156 | 48 | 203 | 0.0 | 0.0 | 0.00 | 0.00 | 0.00 | 73 | 1012.3 |
| 20260505072152 | 49 | 203 | 0.0 | 0.0 | 0.00 | 0.00 | 0.00 | 74 | 1012.2 |